Regional Weather Roundup
Issued by NWS

Home | Current Version | Previous Version | Text Only | Print | Product List | Glossary On
Versions: 1 2 3 4 5 6 7 8 9 10 11 12 13 14 15 16 17 18 19 20 21 22 23 24 25 26 27 28 29 30 31 32 33 34 35 36 37 38 39 40 41 42 43 44 45 46 47 48 49 50
000
ASUS43 KDMX 232006
RWRIA

WEATHER ROUNDUP FOR IOWA
NATIONAL WEATHER SERVICE DES MOINES IA
200 PM CST THU FEB 23 2017

NOTE: "FAIR" INDICATES FEW OR NO CLOUDS BELOW 12,000 FEET WITH NO
SIGNIFICANT WEATHER AND/OR OBSTRUCTIONS TO VISIBILITY.

* - THESE STATIONS ARE NOT NWS STATIONS...THUS NOT UNDER NWS
QUALITY CONTROL.  THEY ALSO DO NOT REPORT WEATHER SUCH
AS PRECIPITATION OR FOG.

IAZ001>003-012>014-020>022-031>034-043>046-232100-
   NORTHWEST IOWA

CITY           SKY/WX    TMP DP  RH WIND       PRES   REMARKS
CARROLL *      CLOUDY    39  37  93 NE21      29.68F WCI  29
CHEROKEE *     CLOUDY    35  32  88 NE13G21   29.77R WCI  26
DENISON *      LGT RAIN  37  34  87 NE16G25   29.66S WCI  28
LE MARS *      CLOUDY    36  30  80 NE21G26   29.76F WCI  24
ORANGE CITY *  CLOUDY    34  30  86 N17       29.77S WCI  23
SHELDON *      MOSUNNY   32  32 100 NE28      29.76F WCI  18
SIOUX CITY     CLOUDY    38  30  73 NE22      29.74F WCI  27
SPENCER        CLOUDY    35  30  82 NE29      29.77F WCI  22
STORM LAKE *   CLOUDY    34  32  93 NE25G32   29.71F WCI  21
$$

IAZ055>058-069>071-079>083-090>094-232100-
   SOUTHWEST IOWA

CITY           SKY/WX    TMP DP  RH WIND       PRES   REMARKS
ATLANTIC *     CLOUDY    41  37  87 NE20G30   29.61F
CLARINDA *     PTSUNNY   48  39  71 E13G22    29.60S
COUNCIL BLFS *   N/A     41  37  87 NE17      29.63S
CRESTON *      CLOUDY    48  39  71 E26G33    29.56F
HARLAN  *      CLOUDY    39  39 100 NE17G29   29.67F WCI  30
LAMONI         CLOUDY    49  41  74 E15G31    29.54F
RED OAK *      CLOUDY    46  37  71 NE18      29.60S
SHENANDOAH *   CLOUDY    50  39  66 NE18      29.58F
$$

IAZ047>049-059>061-072>074-084-232100-
   CENTRAL IOWA

CITY           SKY/WX    TMP DP  RH WIND       PRES   REMARKS
AMES           CLOUDY    42  38  85 E15G23    29.68F
ANKENY *       MIX PCPN  43  39  87 E9G18     29.68F
BOONE *        MIX PCPN  39  39 100 NE16      29.68R WCI  30
CHARITON *     CLOUDY    50  39  66 NE20G26   29.59F
DES MOINES     CLOUDY    46  39  76 E16G24    29.64F
GRINNELL*      CLOUDY    43  38  85 E16       29.71R
KNOXVILLE *    CLOUDY    46  39  76 E20G25    29.63F
MARSHALLTOWN   LGT RAIN  42  37  82 E18       29.67F
NEWTON *       CLOUDY    43  39  87 E15       29.68F
PELLA *        CLOUDY    46  38  75 E10G17    29.67F
PERRY *        DRIZZLE   41  38  88 E15G22    29.66F
$$

IAZ004>006-015-016-023>025-035-036-232100-
   NORTH CENTRAL IOWA

CITY           SKY/WX    TMP DP  RH WIND       PRES   REMARKS
ALGONA *       CLOUDY    36  34  93 NE25G31   29.75F WCI  23
CLARION *      CLOUDY    39  37  93 NE22      29.72F WCI  29
ESTHERVILLE    CLOUDY    32  30  92 N23       29.80F WCI  19
FORT DODGE *   CLOUDY    37  30  75 NE12G22   29.73F WCI  30
MASON CITY     CLOUDY    39  34  82 NE18G28   29.76F WCI  30
FOREST CITY *  CLOUDY    37  34  87 NE14G22   29.77F WCI  29
WEBSTER CITY * CLOUDY    39  36  87 NE12G22   29.71R WCI  32
IOWA FALLS *   CLOUDY    42  36  78 NE13G24   29.71F
$$

IAZ007>011-017>019-026>030-037>042-050>054-066-232100-
   NORTHEAST IOWA

CITY           SKY/WX    TMP DP  RH WIND       PRES   REMARKS
CEDAR RAPIDS   LGT RAIN  44  40  85 NE16      29.70F
CHARLES CITY * CLOUDY    43  37  81 NE18G25   29.73F
CLINTON *      LGT RAIN  44  40  85 NE15      29.74F
DECORAH *      CLOUDY    43  32  65 NE13      29.75F
DUBUQUE        CLOUDY    44  36  73 E16G23    29.74F
MONTICELLO *   CLOUDY    45  37  76 NE13      29.73F
OELWEIN *      CLOUDY    45  36  70 NE20      29.73F
WATERLOO       CLOUDY    44  34  67 E15       29.72F
$$

IAZ064-065-067-068-078-232100-
   EAST CENTRAL IOWA

CITY           SKY/WX    TMP DP  RH WIND       PRES   REMARKS
DAVENPORT      CLOUDY    46  39  76 E16       29.72F
IOWA CITY      CLOUDY    47  39  74 E8        29.73F
MUSCATINE *    CLOUDY    46  41  81 E9        29.71F
QUAD CITIES    CLOUDY    50  40  68 E13       29.72F
$$

IAZ062-063-075>077-085>089-095>099-232100-
   SOUTHEAST IOWA

CITY           SKY/WX    TMP DP  RH WIND       PRES   REMARKS
BURLINGTON     LGT RAIN  47  44  90 E9        29.70F FOG
FAIRFIELD *    CLOUDY    45  41  87 E13       29.68F
KEOKUK *       LGT RAIN  46  45  93 NE12      29.66F
CENTERVILLE *    N/A     46  43  87 E15G26    29.60F
OTTUMWA        CLOUDY    47  40  76 E18       29.66F
WASHINGTON *   CLOUDY    46  41  81 E14       29.71F
$$

ABBREVIATIONS USED IN REMARKS
   TC - TEMPERATURES IN CELSIUS
  WCI - WIND CHILL INDEX
   HX - HEAT INDEX
  VSB - VISIBILITY
$$




USA.gov is the U.S. government's official web portal to all federal, state and local government web resources and services.